Location: Newark
(51.3318°N, 0.0053°E)
Time: 12:59:50
(UTC+00:00)

RS-44 - Pass Details

Date: 07 July 2022
Orbit: 1175 x 1510 km, 82.5° (Epoch: 07 August)

Event Time Altitude Azimuth Distance (km) Brightness Sun altitude
Rises 21:57:29 0° 241° (WSW) 4,482 ? -11.0°
Reaches altitude 10° 22:01:00 10° 255° (WSW) 3,557 ? -11.3°
Maximum altitude 22:07:45 25° 307° (NW) 2,661 ? -11.8°
Drops below altitude 10° 22:14:44 10° 359° (N) 3,678 ? -12.3°
Sets 22:18:30 0° 12° (NNE) 4,667 ? -12.5°
